Location: Unspecified
(47.4992°N, 121.7766°W)
Time: 17:35:09
(UTC-08:00)

Cosmos 2058 - Pass Details

Date: 02 February 2021
Orbit: 561 x 584 km, 82.5° (Epoch: 05 March)

Event Time Altitude Azimuth Distance (km) Brightness Sun altitude
Rises 18:17:21 0° 160° (SSE) 2,783 6.3 -11.5°
Reaches altitude 10° 18:19:45 10° 148° (SSE) 1,886 5.3 -11.9°
Maximum altitude 18:23:18 28° 90° (E) 1,107 3.8 -12.5°
Drops below altitude 10° 18:26:50 10° 31° (NNE) 1,888 5.2 -13.1°
Enters shadow 18:27:26 - 27° (NNE) 2,104 5.4 -13.2°
